Regional Weather Roundup
Issued by NWS

Home | Current Version | Previous Version | Text Only | Print | Product List | Glossary Off
Versions: 1 2 3 4 5 6 7 8 9 10 11 12 13 14 15 16 17 18 19 20 21 22 23 24 25 26 27 28 29 30 31 32 33 34 35 36 37 38 39 40 41 42 43 44 45 46 47 48 49 50

000
ASUS43 KDMX 231106
RWRIA

WEATHER ROUNDUP FOR IOWA
NATIONAL WEATHER SERVICE DES MOINES IA
600 AM CDT TUE MAY 23 2017

NOTE: "FAIR" INDICATES FEW OR NO CLOUDS BELOW 12,000 FEET WITH NO
SIGNIFICANT WEATHER AND/OR OBSTRUCTIONS TO VISIBILITY.

* - THESE STATIONS ARE NOT NWS STATIONS...THUS NOT UNDER NWS
QUALITY CONTROL.  THEY ALSO DO NOT REPORT WEATHER SUCH
AS PRECIPITATION OR FOG.

IAZ001>003-012>014-020>022-031>034-043>046-231200-
   NORTHWEST IOWA

CITY           SKY/WX    TMP DP  RH WIND       PRES   REMARKS
CARROLL *      PTCLDY    48  48 100 W10       29.86R
CHEROKEE *     PTCLDY    46  43  90 NW6       29.88S
DENISON *      CLEAR     46  45  93 W6        29.89S
LE MARS *      CLOUDY    46  43  87 W7        29.90S
ORANGE CITY *  PTCLDY    45  43  93 W6        29.88S
SHELDON *      CLOUDY    46  43  87 W9          N/A
SIOUX CITY     PTCLDY    45  43  93 W5        29.91S
SPENCER        CLOUDY    48  46  93 NW8       29.85F
STORM LAKE *   CLOUDY    46  43  87 NW13      29.86S
$$

IAZ055>058-069>071-079>083-090>094-231200-
   SOUTHWEST IOWA

CITY           SKY/WX    TMP DP  RH WIND       PRES   REMARKS
ATLANTIC *     PTCLDY    46  45  93 W8        29.88S
AUDUBON *      CLEAR     46  43  87 NW5       29.87F
CLARINDA *     CLOUDY    50  46  87 NW7       29.91S
COUNCIL BLFS * CLEAR     46  46 100 NW8       29.90S
CRESTON *      MOCLDY    50  46  87 NW9       29.88S
HARLAN  *      CLEAR     46  46 100 NW14      29.91S
LAMONI         MOCLDY    50  49  96 NW12      29.85S
RED OAK *      CLOUDY    50  46  87 NW8       29.89S
SHENANDOAH *   MOCLDY    50  46  87 NW5       29.90S
$$

IAZ047>049-059>061-072>074-084-231200-
   CENTRAL IOWA

CITY           SKY/WX    TMP DP  RH WIND       PRES   REMARKS
AMES           MOCLDY    50  48  93 NW6       29.83R
ANKENY *       CLOUDY    50  48  93 MISG      29.85R
BOONE *        PTCLDY    48  48 100 NW7       29.83S
DES MOINES     CLOUDY    52  49  89 NW9       29.84R
GRINNELL*      CLOUDY    50  48  93 W6        29.83R
MARSHALLTOWN   CLOUDY    50  50 100 NW9       29.81R
NEWTON *       CLOUDY    52  50  93 NW8       29.82R
PELLA *        CLOUDY    52  51  94 NW6       29.84R
PERRY *          N/A     49  48  93 W8        29.85S
$$

IAZ004>006-015-016-023>025-035-036-231200-
   NORTH CENTRAL IOWA

CITY           SKY/WX    TMP DP  RH WIND       PRES   REMARKS
ALGONA *       LGT RAIN  50  50 100 NW9       29.84R
CLARION *      CLOUDY    50  50 100 NW8       29.83S
ESTHERVILLE    CLOUDY    47  47 100 NW8       29.83F
FORT DODGE *   MOCLDY    48  46  93 W5        29.85R
MASON CITY     CLOUDY    49  47  93 NW9       29.82S
FOREST CITY *  CLOUDY    50  43  76 NW9       29.81F
WEBSTER CITY * MOCLDY    50  48  93 NW13      29.81S
IOWA FALLS *   CLOUDY    50  48  92 NW7       29.84R
$$

IAZ007>011-017>019-026>030-037>042-050>054-066-231200-
   NORTHEAST IOWA

CITY           SKY/WX    TMP DP  RH WIND       PRES   REMARKS
CEDAR RAPIDS   CLEAR     48  48 100 W8        29.78S
CHARLES CITY * LGT RAIN  50  50 100 NW10      29.80R
CLINTON *      CLOUDY    52  51  97 SW8       29.80R
DECORAH *      CLOUDY    50  48  93 N3        29.76S
DUBUQUE        CLOUDY    52  51  97 SW12      29.77R FOG
MONTICELLO *   PTCLDY    50  50 100 SW5       29.78R
OELWEIN *      CLOUDY    50  50 100 W5        29.79R FOG
WATERLOO       CLOUDY    51  49  92 NW5       29.79R
$$

IAZ064-065-067-068-078-231200-
   EAST CENTRAL IOWA

CITY           SKY/WX    TMP DP  RH WIND       PRES   REMARKS
DAVENPORT      CLOUDY    53  51  93 SW8       29.80S
IOWA CITY      MOCLDY    52  50  93 CALM      29.81R
MT. PLEASANT * CLOUDY    55  55 100 SW6       29.80F
MUSCATINE *    CLOUDY    55  52  88 S5        29.80F
QUAD CITIES    MOCLDY    55  51  86 SW7       29.80S
$$

IAZ062-063-075>077-085>089-095>099-231200-
   SOUTHEAST IOWA

CITY           SKY/WX    TMP DP  RH WIND       PRES   REMARKS
BURLINGTON     CLOUDY    56  56 100 S7        29.80F
FAIRFIELD *    CLOUDY    52  50  93 SW6       29.80S
FORT MADISON * CLOUDY    55  55 100 SW7       29.82S
KEOKUK *       LGT RAIN  55  55 100 S5        29.81S
OSKALOOSA *      N/A     49  48  97 W6        29.81F
CENTERVILLE *  CLOUDY    50  50 100 CALM      29.84S
OTTUMWA        MOCLDY    51  51 100 W8        29.80F
WASHINGTON *   CLOUDY    52  50  93 SW6       29.82R
$$

ABBREVIATIONS USED IN REMARKS
   TC - TEMPERATURES IN CELSIUS
  WCI - WIND CHILL INDEX
   HX - HEAT INDEX
  VSB - VISIBILITY
$$





USA.gov is the U.S. government's official web portal to all federal, state and local government web resources and services.